Terug naar catalogus

STARLINK-30944

ActiefCommunicatieVLEO
NORAD 58451·PAYLOAD·🇺🇸 United States

Gelanceerd Nov 28, 2023 vanaf Cape Canaveral Space Force Station

Loading…

Volgende Passages (komende 24 uur)

TLE

VersSource: CelesTrak SupGP

Epoch: Sep 15, 2026, 02:21 UTC

1 58451C 23183Q   26258.09840278 -.00025775  00000+0 -93335-3 0  2582
2 58451  43.0032  51.8026 0001978 274.1993  80.2832 15.27598736    16

Volg STARLINK-30944 in realtime met AllMySat

Download on the App Store